TimeCDT,TemperatureF,Dew PointF,Humidity,Sea Level PressureIn,VisibilityMPH,Wind Direction,Wind SpeedMPH,Gust SpeedMPH,PrecipitationIn,Events,Conditions,WindDirDegrees,DateUTC
12:15 AM,37.0,29.5,74,30.13,10.0,Calm,Calm,-,N/A,,Clear,0,2013-03-25 05:15:00
12:35 AM,35.2,29.7,80,30.13,10.0,Calm,Calm,-,N/A,,Clear,0,2013-03-25 05:35:00
12:55 AM,34.7,29.5,81,30.13,10.0,Calm,Calm,-,N/A,,Clear,0,2013-03-25 05:55:00
1:15 AM,33.3,30.0,88,30.14,10.0,NW,3.5,-,N/A,,Clear,310,2013-03-25 06:15:00
1:35 AM,33.3,29.3,85,30.14,10.0,NW,3.5,-,N/A,,Clear,320,2013-03-25 06:35:00
1:55 AM,33.3,30.0,88,30.15,10.0,Calm,Calm,-,N/A,,Clear,0,2013-03-25 06:55:00
2:15 AM,32.4,28.9,87,30.15,10.0,NNW,3.5,-,N/A,,Clear,330,2013-03-25 07:15:00
2:35 AM,32.9,28.4,84,30.15,10.0,NNW,5.8,-,N/A,,Clear,330,2013-03-25 07:35:00
2:55 AM,32.5,28.2,84,30.15,10.0,NNW,4.6,-,N/A,,Clear,330,2013-03-25 07:55:00
3:15 AM,33.3,27.5,79,30.15,10.0,NW,4.6,-,N/A,,Clear,310,2013-03-25 08:15:00
3:35 AM,32.2,27.3,82,30.17,10.0,NNW,3.5,-,N/A,,Clear,330,2013-03-25 08:35:00
3:55 AM,32.0,27.5,83,30.17,10.0,NW,3.5,-,N/A,,Clear,320,2013-03-25 08:55:00
4:15 AM,31.6,27.1,83,30.18,10.0,NW,3.5,-,N/A,,Clear,310,2013-03-25 09:15:00
4:35 AM,31.8,26.8,82,30.18,10.0,WNW,3.5,-,N/A,,Clear,300,2013-03-25 09:35:00
4:55 AM,31.6,26.2,80,30.19,10.0,WNW,3.5,-,N/A,,Clear,300,2013-03-25 09:55:00
5:15 AM,31.3,25.7,80,30.20,10.0,NW,3.5,-,N/A,,Clear,320,2013-03-25 10:15:00
5:35 AM,31.1,25.7,80,30.20,10.0,Calm,Calm,-,N/A,,Clear,0,2013-03-25 10:35:00
5:55 AM,31.1,25.7,80,30.20,10.0,Calm,Calm,-,N/A,,Clear,0,2013-03-25 10:55:00
6:15 AM,30.4,25.9,83,30.21,10.0,Calm,Calm,-,N/A,,Clear,0,2013-03-25 11:15:00
6:35 AM,29.7,26.4,88,30.22,10.0,Calm,Calm,-,N/A,,Clear,0,2013-03-25 11:35:00
6:55 AM,30.2,25.7,83,30.23,10.0,West,3.5,-,N/A,,Clear,270,2013-03-25 11:55:00
7:15 AM,30.2,25.3,82,30.23,10.0,West,4.6,-,N/A,,Clear,270,2013-03-25 12:15:00
7:35 AM,30.2,25.5,83,30.24,10.0,Calm,Calm,-,N/A,,Clear,0,2013-03-25 12:35:00
7:55 AM,31.1,25.7,80,30.26,10.0,Calm,Calm,-,N/A,,Clear,0,2013-03-25 12:55:00
8:15 AM,32.0,26.2,79,30.27,10.0,West,5.8,-,N/A,,Clear,270,2013-03-25 13:15:00
8:35 AM,34.0,26.6,74,30.27,10.0,WNW,5.8,-,N/A,,Clear,290,2013-03-25 13:35:00
8:55 AM,36.3,27.5,70,30.28,10.0,West,5.8,-,N/A,,Clear,280,2013-03-25 13:55:00
9:15 AM,37.8,26.4,64,30.28,10.0,WNW,9.2,-,N/A,,Clear,290,2013-03-25 14:15:00
9:35 AM,39.4,25.2,57,30.29,10.0,NW,9.2,-,N/A,,Clear,310,2013-03-25 14:35:00
9:55 AM,40.8,24.4,52,30.29,10.0,NW,11.5,18.4,N/A,,Clear,310,2013-03-25 14:55:00
10:15 AM,42.4,24.3,49,30.29,10.0,WNW,10.4,-,N/A,,Clear,290,2013-03-25 15:15:00
10:35 AM,44.2,23.5,44,30.29,10.0,NW,17.3,23.0,N/A,,Clear,310,2013-03-25 15:35:00
10:55 AM,45.0,23.7,43,30.29,10.0,NW,15.0,19.6,N/A,,Clear,310,2013-03-25 15:55:00
11:15 AM,46.0,22.3,39,30.29,10.0,WNW,15.0,25.3,N/A,,Clear,290,2013-03-25 16:15:00
11:35 AM,46.8,23.0,39,30.29,10.0,NW,12.7,20.7,N/A,,Clear,320,2013-03-25 16:35:00
11:55 AM,48.2,22.6,37,30.29,10.0,NW,12.7,21.9,N/A,,Clear,320,2013-03-25 16:55:00
12:15 PM,49.1,22.1,35,30.27,10.0,NW,16.1,23.0,N/A,,Clear,310,2013-03-25 17:15:00
12:35 PM,50.2,22.8,34,30.27,10.0,WNW,15.0,24.2,N/A,,Clear,290,2013-03-25 17:35:00
12:55 PM,51.4,22.1,32,30.26,10.0,NNW,18.4,24.2,N/A,,Clear,330,2013-03-25 17:55:00
1:15 PM,52.7,20.8,29,30.26,10.0,NW,16.1,20.7,N/A,,Clear,310,2013-03-25 18:15:00
1:35 PM,53.8,21.2,28,30.25,10.0,WNW,20.7,28.8,N/A,,Clear,290,2013-03-25 18:35:00
1:55 PM,53.6,18.0,25,30.24,10.0,NW,19.6,26.5,N/A,,Clear,320,2013-03-25 18:55:00
2:15 PM,54.1,18.9,25,30.23,10.0,NW,16.1,28.8,N/A,,Clear,320,2013-03-25 19:15:00
2:35 PM,54.9,18.5,24,30.22,10.0,WNW,13.8,29.9,N/A,,Clear,300,2013-03-25 19:35:00
2:55 PM,54.7,18.1,24,30.22,10.0,West,15.0,27.6,N/A,,Clear,280,2013-03-25 19:55:00
3:15 PM,54.5,18.0,24,30.21,10.0,NNW,16.1,25.3,N/A,,Clear,340,2013-03-25 20:15:00
3:35 PM,54.0,17.1,23,30.21,10.0,NW,18.4,32.2,N/A,,Clear,310,2013-03-25 20:35:00
3:55 PM,54.1,17.8,24,30.21,10.0,WNW,16.1,26.5,N/A,,Clear,290,2013-03-25 20:55:00
4:15 PM,55.2,19.6,25,30.21,10.0,NW,16.1,21.9,N/A,,Clear,320,2013-03-25 21:15:00
4:35 PM,54.0,18.0,24,30.20,10.0,North,16.1,26.5,N/A,,Clear,350,2013-03-25 21:35:00
4:55 PM,53.6,18.1,25,30.21,10.0,North,16.1,26.5,N/A,,Clear,350,2013-03-25 21:55:00
5:15 PM,53.6,17.4,24,30.21,10.0,NNW,15.0,24.2,N/A,,Clear,340,2013-03-25 22:15:00
5:35 PM,53.4,18.0,25,30.22,10.0,NW,16.1,27.6,N/A,,Clear,320,2013-03-25 22:35:00
5:55 PM,52.5,17.1,25,30.22,10.0,NW,15.0,21.9,N/A,,Clear,320,2013-03-25 22:55:00
6:15 PM,51.8,16.9,25,30.22,10.0,NNW,12.7,20.7,N/A,,Clear,330,2013-03-25 23:15:00
6:35 PM,50.9,17.8,27,30.23,10.0,NNW,13.8,17.3,N/A,,Clear,330,2013-03-25 23:35:00
6:55 PM,50.0,18.3,29,30.24,10.0,NW,10.4,19.6,N/A,,Clear,320,2013-03-25 23:55:00
7:15 PM,48.6,17.2,29,30.25,10.0,NW,9.2,17.3,N/A,,Clear,320,2013-03-26 00:15:00
7:35 PM,47.3,19.0,33,30.26,10.0,NW,5.8,-,N/A,,Clear,320,2013-03-26 00:35:00
7:55 PM,45.9,19.2,35,30.27,10.0,NW,4.6,-,N/A,,Clear,320,2013-03-26 00:55:00
8:15 PM,44.8,20.1,37,30.27,10.0,NNW,4.6,-,N/A,,Clear,330,2013-03-26 01:15:00
8:35 PM,43.3,21.0,41,30.28,10.0,NW,3.5,-,N/A,,Clear,320,2013-03-26 01:35:00
8:55 PM,42.4,21.4,43,30.28,10.0,NNW,3.5,-,N/A,,Clear,330,2013-03-26 01:55:00
9:15 PM,41.2,25.0,53,30.29,10.0,NNW,4.6,-,N/A,,Clear,330,2013-03-26 02:15:00
9:35 PM,41.9,23.0,47,30.30,10.0,NNW,6.9,-,N/A,,Clear,340,2013-03-26 02:35:00
9:55 PM,42.3,22.8,46,30.32,10.0,North,5.8,-,N/A,,Clear,350,2013-03-26 02:55:00
10:15 PM,41.2,22.8,48,30.33,10.0,North,9.2,-,N/A,,Clear,360,2013-03-26 03:15:00
10:35 PM,40.8,22.6,48,30.34,10.0,North,8.1,-,N/A,,Clear,350,2013-03-26 03:35:00
10:55 PM,40.1,23.0,51,30.36,10.0,North,6.9,-,N/A,,Clear,350,2013-03-26 03:55:00
11:15 PM,39.2,23.0,52,30.37,10.0,North,6.9,-,N/A,,Clear,360,2013-03-26 04:15:00
11:35 PM,38.7,23.0,53,30.37,10.0,North,5.8,-,N/A,,Clear,360,2013-03-26 04:35:00
11:55 PM,37.6,23.7,57,30.38,10.0,North,3.5,-,N/A,,Clear,360,2013-03-26 04:55:00